Regional Weather Roundup
Issued by NWS

Home | Current Version | Previous Version | Graphics & Text | Print | Product List | Glossary On
Versions: 1 2 3 4 5 6 7 8 9 10 11 12 13 14 15 16 17 18 19 20 21 22 23 24 25 26 27 28 29 30 31 32 33 34 35 36 37 38 39 40 41 42 43 44 45 46 47 48 49 50
000
ASUS43 KLSX 300707
RWRMO

WEATHER SUMMARY FOR MISSOURI
NATIONAL WEATHER SERVICE SPRINGFIELD MO
200 AM CDT TUE AUG 30 2016

NOTE: "FAIR" INDICATES FEW OR NO CLOUDS BELOW 12,000 FEET WITH NO
       SIGNIFICANT WEATHER AND/OR OBSTRUCTIONS TO VISIBILITY.
       CURRENT SKY AND/OR WEATHER CONDITIONS ARE NOT AVAILABLE FOR
       CHILLICOTHE AND FARMINGTON.

MOZ001>031-035>038-043-044-053-054-300800-
...NORTHERN AND WESTERN MISSOURI...

CITY           SKY/WX    TMP DP  RH WIND       PRES   REMARKS
KANSAS CTY INT CLOUDY    73  69  87 N8        30.17R
KANSAS C DTWN  LGT RAIN  77  73  87 S6        30.16R
LEE`S SUMMIT   TSTM      71  68  90 S13       30.17R FOG
ST JOSEPH      CLOUDY    71  69  93 N8        30.18F THUNDER
CHILLICOTHE      N/A     72  70  93 CALM      30.16F
KIRKSVILLE     CLEAR     71  69  93 N6        30.17F

$$
MOZ066>068-077>081-088>096-101>105-300800-
...SOUTHWEST MISSOURI...

CITY           SKY/WX    TMP DP  RH WIND       PRES   REMARKS
SPRINGFIELD    CLOUDY    77  70  79 CALM      30.14F
JOPLIN         PTCLDY    71  69  93 E3        30.13F
BRANSON        PTCLDY    70  70 100 CALM      30.16F FOG

$$
MOZ032>034-039>042-045>050-055>058-069>072-300800-
...CENTRAL MISSOURI...

CITY           SKY/WX    TMP DP  RH WIND       PRES   REMARKS
COLUMBIA       CLEAR     75  72  90 E5        30.15F
JEFFERSON CITY CLEAR     73  72  96 CALM      30.13F
ROLLA          CLEAR     74  70  87 SE7       30.15F
SEDALIA        CLEAR     75  72  90 CALM      30.15F
WHITEMAN AFB   PTCLDY    76  76 100 SE5       30.12F
OSAGE BEACH    CLEAR     72  71  97 CALM      30.15S

$$
MOZ051-052-059>065-300800-
...EAST CENTRAL MISSOURI...

CITY           SKY/WX    TMP DP  RH WIND       PRES   REMARKS
ST LOUIS INTL  CLEAR     79  72  79 SE5       30.14F
SPIRIT OF STL  CLEAR     75  74  96 CALM      30.13S
ST CHARLES     CLEAR     76  76 100 CALM      30.13F

$$
MOZ072>076-082>087-097>100-106>115-300800-
...SOUTH CENTRAL AND SOUTHEAST MISSOURI...

CITY           SKY/WX    TMP DP  RH WIND       PRES   REMARKS
CAPE GIRARDEAU CLEAR     72  70  93 CALM      30.11S
FARMINGTON     CLEAR     72  71  97 CALM      30.16S
POPLAR BLUFF   CLEAR     76  73  91 N6        30.10S
WEST PLAINS    CLEAR     72  69  90 N3        30.17F

$$



USA.gov is the U.S. government's official web portal to all federal, state and local government web resources and services.